www.pogodaiklimat.ru
ПОГОДА в Ридсвилле
Время
и дата
07:35 17.04
07:55 17.04
08:15 17.04
08:35 17.04
08:55 17.04
09:15 17.04
09:35 17.04
09:55 17.04
10:15 17.04
10:35 17.04
10:55 17.04
11:15 17.04
11:35 17.04
11:55 17.04
12:15 17.04
12:35 17.04
12:55 17.04
13:15 17.04
13:55 17.04
14:15 17.04
14:35 17.04
14:55 17.04
15:15 17.04
15:35 17.04
15:55 17.04
16:15 17.04
16:35 17.04
16:55 17.04
17:15 17.04
17:35 17.04
17:55 17.04
18:15 17.04
18:35 17.04
18:55 17.04
19:15 17.04
19:35 17.04
19:55 17.04
20:15 17.04
20:35 17.04
20:55 17.04
21:15 17.04
21:35 17.04
21:55 17.04
22:15 17.04
22:35 17.04
22:55 17.04
23:15 17.04
23:35 17.04
Ветер
(напр.,м/с)
Видим. Явления Облачность Т
(С)
Тd
(С)
f
(%)
Тe
(С)
Тes
(С)
Комфортность P
(гПа)
Po
(гПа)
Тmin
(С)
Tmax
(С)
R
(мм)
R24
(мм)
S
(см)
штиль 0 14 км 5/0 2700 m
[Ac]
+13.0 +9.0 77 +13 +14 988.7
штиль 0 16 км 5/2 1950 m
[Ac]
+13.0 +9.0 77 +13 +14 988.3
штиль 0 16 км 5/0 2100 m
[Ac]
+14.0 +8.0 67 +14 +18 988.3
штиль 0 16 км 8/0 2250 m
[Ac]
+14.0 +8.0 67 +14 +17 988.0
штиль 0 10 км слабый дождь 10/8 30 m
[Ac Ns]
+13.0 +8.0 72 +13 +13 988.0
С 2 8 км слабый дождь 10/10 30 m
[Ns]
+13.0 +10.0 82 +12 +12 987.7
штиль 0 13 км слабый дождь 5/5 60 m
[Ns]
+13.0 +11.0 88 +12 +18 988.3
штиль 0 13 км 5/0 2100 m
[Ac]
+13.0 +10.0 82 +13 +20 988.3
штиль 0 14 км 2/0 2550 m
[Ac]
+14.0 +9.0 72 +14 +28 опасность
простуды
988.3
штиль 0 14 км ясно +14.0 +9.0 72 +14 +31 опасность
простуды
988.0
С 2 14 км ясно +14.0 +9.0 72 +14 +26 опасность
простуды
987.7
штиль 0 14 км ясно +15.0 +9.0 67 +15 +36 опасность
простуды
987.7
штиль 0 13 км слабый дождь ясно +15.0 +9.0 67 +15 +36 опасность
простуды
986.7
нст 2 14 км 2/0 3300 m
[Ac]
+15.0 +10.0 72 +15 +28 опасность
простуды
986.0
штиль 0 14 км 2/0 2700 m
[Ac]
+15.0 +10.0 72 +15 +34 опасность
простуды
986.0
штиль 0 14 км 8/0 2700 m
[Ac]
+15.0 +10.0 72 +15 +25 985.7
штиль 0 16 км 8/0 2700 m
[Ac]
+15.0 +10.0 72 +15 +25 985.4
С 2 14 км 5/0 2850 m
[Ac]
+15.0 +10.0 72 +15 +25 985.0
СВ 3 14 км ясно +16.0 +10.0 68 +16 +29 опасность
простуды
984.7
СВ 3 16 км ясно +17.0 +9.0 59 +17 +28 984.7
штиль 0 14 км ясно +17.0 +9.0 59 +17 +35 опасность
простуды
984.4
СВ 3 14 км ясно +18.0 +9.0 56 +18 +30 опасность
простуды
983.4
штиль 0 14 км ясно +18.0 +9.0 56 +18 +32 опасность
простуды
983.4
штиль 0 16 км 2/0 3000 m
[Ac]
+18.0 +9.0 56 +18 +30 опасность
простуды
983.1
штиль 0 14 км 8/0 2850 m
[Ac]
+18.0 +9.0 56 +18 +24 982.7
В 3 16 км 5/0 2700 m
[Ac]
+18.0 +10.0 59 +18 +21 982.4
СВ 2 14 км ясно +18.0 +10.0 59 +19 +25 982.4
нст 2 14 км 2/0 3000 m
[Ac]
+18.0 +10.0 59 +19 +24 982.1
штиль 0 14 км 5/0 3000 m
[Ac]
+18.0 +10.0 59 +18 +20 982.1
В 3 14 км 5/0 3000 m
[Ac]
+19.0 +10.0 56 +20 +21 982.1
штиль 0 14 км 5/0 2850 m
[Ac]
+18.0 +10.0 59 +18 +20 982.4
нст 3 16 км 2/0 3000 m
[Ac]
+18.0 +11.0 64 +18 +19 982.1
СВ 3 16 км ясно +18.0 +11.0 64 +18 +19 981.8
СВ 2 16 км 2/2 960 м +17.0 +11.0 68 +17 +18 981.4
СВ 2 16 км 5/5 900 м +17.0 +12.0 72 +17 +17 981.8
В 2 16 км 10/10 810 м +17.0 +12.0 72 +17 +17 981.8
В 2 16 км 10/10 690 м +17.0 +13.0 77 +17 +17 981.8
В 3 16 км 10/10 660 м +17.0 +13.0 77 +17 +17 982.1
ЮВ 3 16 км 10/10 630 м +17.0 +13.0 77 +17 +17 981.8
штиль 0 16 км 10/10 600 м +17.0 +13.0 77 +17 +17 981.8
нст 2 16 км 10/10 570 м +17.0 +14.0 82 +17 +17 982.1
З 7 14 км 10/10 510 м +17.0 +14.0 82 +16 +16 983.7
Ю 4 3 км слабый дождь 10/10 60 m
[Ns]
+16.0 +14.0 88 +15 +15 983.4
Ю 2 6 км слабый дождь 10/10 60 m
[Ns]
+15.0 +14.0 94 +15 +15 983.1
В 2 6 км слабый дождь 10/10 30 m
[Ns]
+15.0 +14.0 94 +15 +15 982.4
штиль 0 8 км слабый дождь 10/10 30 m
[Ns]
+14.0 +14.0 100 +13 +13 983.1
штиль 0 6 км слабый дождь 10/10 30 m
[Ns]
+14.0 +14.0 100 +13 +13 983.1
штиль 0 8 км слабый дождь 10/10 30 m
[Ns]
+14.0 +14.0 100 +13 +13 982.7
Местоположение метеостанции Mifflin County Airport: широта 40.6774 долгота -77.6268 высота над уровнем моря 250 м.
В архиве по умолчанию представлена погода в Ридсвилле за последние 1-2 суток. Обновление информации о фактической погоде в базе происходит ежечасно! Архивные данные за месяц целиком и за предыдущие месяцы Вы можете получить, выбрав интересующий диапазон дат из раскрывающегося списка и нажав кнопку "Ввод!".
Внимание! Архив погоды МЕТАР в базе сайта по станциям, не включенным в климатический монитор, хранится не более 60 дней. Нет смысла пытаться выбрать более раннюю дату.
*Определитесь, кто Вы:
Внимание! Время в таблицах - местное (без учета летнего времени). Для получения всемирного времени необходимо вычесть поправку, которая равна -5 ч.
Смотрите также архив погоды в соседних городах и на ближайших метеорологических станциях:
Партнеры нашего сайта:      
Пояснения к столбцам:
  • Ветер - указаны скорость ветра в м/с - средняя за 10 мин, порывы в срок и между сроками (в фигурных скобках) и направление, откуда дует ветер: С - северный,
  • СВ - северо-восточный, В - восточный, ЮВ - юго-восточный, Ю - южный, ЮЗ - юго-западный, З - западный, СЗ - северо-западный.
  • Видимость - горизонтальная дальность видимости в метрах или километрах. При видимости от 1 до 10 км при отсутствии осадков обычно наблюдается дымка, при ухудшении видимости до 1 км и менее - туман. В сухую погоду видимость может ухудшаться дымом, пылью или мглою.
  • Явления - указаны атмосферные явления, наблюдавшиеся в срок или в последний час перед сроком; фигурными скобками обозначены явления, наблюдавшиеся между сроками (за 1-3 часа до срока); квадратными скобками обозначены град или гололедные отложения с указанием их диаметра в мм.
  • Облачность - указаны через наклонную черту общая и нижняя облачность в баллах и высота нижней границы облаков в метрах; квадратными скобками обозначены формы облаков: Ci - перистые, Cs - перисто-слоистые, Cc - перисто-кучевые, Ac - высококучевые, As - высокослоистые, Sc - слоисто-кучевые, Ns - слоисто-дождевые, Cu - кучевые, Cb - кучево-дождевые. Подробнее классификацию облаков см. в Атласе облаков (PDF).
  • T - Температура воздуха - температура, измеренная на высоте 2 м над землей.
  • Td - Температура точки росы - температура, при понижении до которой содержащийся в воздухе водяной пар достигнет насыщения.
  • f - Относительная влажность воздуха - влажноcть воздуха, измеренная на высоте 2 м над землей.
  • Te - Эффективная температура - температура, которую ощущает одетый по сезону человек в тени. Характеристика душности погоды. При расчете учитывается влияние влажности воздуха и скорости ветра на теплоощущения человека.
  • Tes - Эффективная температура на солнце - температура, которую ощущает человек, с поправкой на солнечный нагрев. Характеристика знойности погоды. Зависит от высоты солнца над горизонтом, облачности и скорости ветра. Ночью, в пасмурную погоду, а также при ветре 12 м/с и более поправка равна нулю.
  • P - Атмосферное давление - приведенное к уровню моря атмосферное давление.
  • Po - Атмосферное давление - измеренное на уровне метеостанции атмосферное давление.
  • Tmin - Минимальная температура - минимум температуры воздуха на высоте 2 м над землей.
  • Tmax - Максимальная температура - максимум температуры воздуха на высоте 2 м над землей.
  • R - Количество осадков - Количество выпавших осадков за период времени, мм. При наведении курсора мыши на число - период времени, за который выпало указанное количество осадков.
  • R24 - Количество осадков - Количество выпавших осадков за 24 часа, мм.
  • S - Снежный покров - Высота снежного покрова, см. При наведении курсора мыши на число - состояние снежного покрова и степень покрытия местности в баллах.